Location: Bidart
(43.4376°N, 1.5913°W)
Time: 04:49:31
(UTC+00:00)

USA 229 DEB - Pass Details

Date: 19 April 2026
Orbit: 844 x 1364 km, 63.4° (Epoch: 10 January)

Event Time Altitude Azimuth Distance (km) Brightness Sun altitude
Rises 23:34:00 0° 324° (NW) 3,938 7.5 -34.6°
Reaches altitude 10° 23:36:47 10° 332° (NNW) 3,054 6.8 -34.7°
Maximum altitude 23:43:43 40° 41° (NE) 1,749 4.9 -34.9°
Enters shadow 23:46:32 31° 82° (E) 2,073 5.1 -34.9°
